AirNav   Air Wisconsin pilot careers
 
 336 users online  

M44 Houston Municipal Airport
Houston, Mississippi, USA

GOING TO HOUSTON?


FAA INFORMATION EFFECTIVE 13 SEPTEMBER 2018

Location

FAA Identifier: M44
Lat/Long: 33-53-11.3750N / 089-01-22.7300W
33-53.189583N / 089-01.378833W
33.8864931 / -89.0229806
(estimated)
Elevation: 337.7 ft. / 102.9 m (surveyed)
Variation: 02E (1985)
From city: 2 miles SW of HOUSTON, MS
Time zone: UTC -5 (UTC -6 during Standard Time)
Zip code: 38851

Airport Operations

Airport use: Open to the public
Activation date: 04/1940
Control tower: no
ARTCC: MEMPHIS CENTER
FSS: GREENWOOD FLIGHT SERVICE STATION
NOTAMs facility: GWO (NOTAM-D service available)
Attendance: MON-FRI 24 HOURS/DAY, ALL SAT-SUN ON CALL
FOR ARPT ATTENDANT SAT & SUN CALL 662-456-8484.
Wind indicator: lighted
Segmented circle: yes
Lights: ACTVT MIRL RY 03/21 - CTAF. PAPI RWY 03/21 OPER CONSLY.
Beacon: white-green (lighted land airport)
Operates sunset to sunrise.

Airport Communications

CTAF: 122.9

Nearby radio navigation aids

VOR radial/distance  VOR name  Freq  Var
OTBr205/23.1TUPELO VOR/DME109.8004E
CBMr297/32.6CALEDONIA VORTAC115.2000E
IGBr309/35.0BIGBEE VORTAC116.2004E

Airport Services

Parking: tiedowns
Bottled oxygen: NONE
Bulk oxygen: NONE

Runway Information

Runway 3/21

Dimensions: 4400 x 75 ft. / 1341 x 23 m
Surface: asphalt, in good condition
Weight bearing capacity: 
Single wheel: 26.0
Runway edge lights: medium intensity
RUNWAY 3  RUNWAY 21
Latitude: 33-52.873833N33-53.505333N
Longitude: 089-01.592833W089-01.164833W
Elevation: 337.7 ft.329.1 ft.
Gradient: 0.3%0.3%
Traffic pattern: leftleft
Markings: basic, in fair conditionbasic, in fair condition
Visual slope indicator: 2-light PAPI on left (3.00 degrees glide path)2-light PAPI on left (3.00 degrees glide path)
Touchdown point: yes, no lightsyes, no lights
Obstructions: 65 ft. trees, 1510 ft. from runway, 20:1 slope to clear48 ft. trees, 1425 ft. from runway, 200 ft. left of centerline, 25:1 slope to clear

Airport Ownership and Management from official FAA records

Ownership: Publicly-owned
Owner: CITY OF HOUSTON
PO BOX 548
HOUSTON, MS 38851
Phone 662-456-2328
Manager: JACK LEWIS
CITY OF HOUSTON, PO BOX 548
HOUSTON, MS 38851
Phone 662-456-0030
CELL PHONE 662-456-8484.

Airport Operational Statistics

Aircraft based on the field: 13
Single engine airplanes: 12
Ultralights: 1
    
Aircraft operations: avg 42/day *
54% transient general aviation
39% local general aviation
7% military
* for 12-month period ending 31 January 2018

Instrument Procedures

There are no published instrument procedures at M44.

Some nearby airports with instrument procedures:

5A4 - Okolona Municipal Airport-Richard Stovall Field (17 nm NE)
M83 - McCharen Field Airport (25 nm SE)
KTUP - Tupelo Regional Airport (26 nm NE)
M40 - Monroe County Airport (27 nm E)
KSTF - George M Bryan Airport (29 nm S)
 
Loc | Ops | Rwys | IFR | FBO | Links
Com | Nav | Svcs | Stats | Notes


 
Area around M44 (Houston Municipal Airport)
 
Road maps at: MapQuest Bing Google
 
Aerial photo
WARNING: Photo may not be current or correct
Aerial photo of M44 (Houston Municipal Airport)
Do you have a better or more recent aerial photo of Houston Municipal Airport that you would like to share? If so, please send us your photo.

 
Sectional chart

 
Airport distance calculator
Flying to Houston Municipal Airport? Find the distance to fly.

From to M44

Sunrise and sunset
Times for 26-Sep-2018
 Local
(UTC-5)
 Zulu
(UTC)
Morning civil twilight06:2311:23
Sunrise06:4811:48
Sunset18:4723:47
Evening civil twilight19:1200:12

Current date and time
Zulu (UTC)  26-Sep-2018 09:17:50
Local (UTC-5)  26-Sep-2018 04:17:50
 
METAR
KTUP 
26nm NE 
260902Z AUTO 07005KT 10SM FEW014 OVC029 22/21 A3000 RMK AO2 T02170206 $
KM40 
27nm E 
260855Z AUTO 00000KT 10SM FEW014 BKN030 OVC045 23/23 A3003 RMK AO2
KSTF 
29nm S 
260855Z AUTO 00000KT 7SM BKN120 22/22 A3002 RMK AO2
KCBM 
32nm SE 
260843Z AUTO 00000KT 10SM BKN007 OVC070 24/23 A3001 RMK AO2 CIG 006 RWY31C SLP163 $
KGTR 
35nm SE 
260856Z AUTO 16004KT 10SM FEW004 OVC085 24/23 A3002 RMK AO2 SLP164 6//// T02390233 56013 PNO $
KUOX 
39nm NW 
260855Z AUTO 00000KT 1 1/2SM +RA OVC003 21/21 A3003 RMK AO2
K5A6 
43nm SW 
260855Z AUTO 00000KT 10SM OVC005 23/23 A3001 RMK AO2 60001 T02320232
TAF
KTUP 
26nm NE 
260545Z 2606/2706 VRB05KT P6SM VCTS BKN050CB OVC090 TEMPO 2606/2609 VRB10G15KT 3SM TSRA FEW005 OVC020CB FM260900 20005KT 6SM BR VCSH SCT009 OVC025 FM261200 36004KT P6SM VCTS BKN015 OVC035CB FM261700 03008KT P6SM VCSH OVC015
KCBM 
32nm SE 
260009Z 2600/2623 18006KT 9999 SCT020 BKN030 QNH2994INS BECMG 2611/2612 VRB06KT 8000 -SHRA BR BKN008 OVC030 QNH2996INS BECMG 2616/2617 03009KT 8000 -SHRA BR BKN020 QNH3000INS TEMPO 2617/2620 03010G15KT 6000 -TSRA OVC020CB TX30/2620Z TN21/2609Z LAST NO AMDS AFT 2601 NEXT 2609
NOTAMs
Click for the latest NOTAMs
NOTAMs are issued by the DoD/FAA and will open in a separate window not controlled by AirNav.

 

 
 

FBO, Fuel Providers, and Aircraft Ground Support

  
 Business Name 
 
 Contact 
 
 Services / Description 
 
Fuel Prices
 
Comments
  
Houston Municipal Airport 662-456-8484
[email]
Aviation fuel, Aircraft parking (ramp or tiedown), Hangar leasing / sales, Passenger terminal and lounge

More info about Houston Municipal Airport
100LL
SS $3.80 
 Updated 23-Jul-2018
 
   write
SS=Self service
Update Fuel Prices
 

Would you like to see your business listed on this page?

 If your business provides an interesting product or service to pilots, flight crews, aircraft, or users of the Houston Municipal Airport, you should consider listing it here.  To start the listing process, click on the button below
 
Add a business
 

Other Pages about Houston Municipal Airport

Update a link
 
Copyright © AirNav, LLC. All rights reserved. Privacy Policy  Contact